Weather History for Indianapolis, IN

Change the Weather History Date:

Tuesday, February 19, 2013

  Actual Average (KEYE) Record (KEYE)
Temperature  
Mean Temperature 33 °F 33 °F  
Max Temperature 45 °F 41 °F 53 °F (1997)
Min Temperature 21 °F 25 °F 3 °F (2006)
Degree Days  
Heating Degree Days 32 32  
Month to date heating degree days 651  
Since 1 July heating degree days 3852  
Cooling Degree Days 0 0  
Month to date cooling degree days 0  
Year to date cooling degree days 0  
Moisture  
Dew Point 18 °F    
Average Humidity 71    
Maximum Humidity 88    
Minimum Humidity 59    
Precipitation  
Precipitation 0.08 in 0.08 in 0.55 in (2002)
Month to date precipitation 1.40  
Year to date precipitation 3.61  
Sea Level Pressure  
Sea Level Pressure 29.89 in    
Wind  
Wind Speed 22 mph (West)    
Max Wind Speed 30 mph    
Max Gust Speed 40 mph    
Visibility 8 miles    
Events Rain , Snow    
T = Trace of Precipitation, MM = Missing Value Source: NWS Daily Summary

Daily Weather History Graph

Daily Weather History Graph

Search for Another Location

Airport:

Trip Planner

Search our weather history database for the weather conditions in past years. The results will help you decide how hot, cold, wet, or windy it might be!

Date:

Astronomy

Feb. 19, 2013 Rise Set
Actual Time 7:32 AM EST 6:25 PM EST
Civil Twilight 7:04 AM EST 6:53 PM EST
Nautical Twilight 6:33 AM EST 7:25 PM EST
Astronomical Twilight 6:01 AM EST 7:56 PM EST
Moon 12:57 PM EST (2/19) 3:03 AM EST (2/19)
Length of Visible Light 11h 48m
Length of Day
10h 53m
Waxing Gibbous, 67% of the Moon is Illuminated
Feb 19
Waxing Gibbous
Feb 25
Full
Mar 4
Last Quarter
Mar 11
New
Mar 19
First Quarter

Hourly Weather History & Observations

Time (EST) Temp. Windchill Dew Point Humidity Pressure Visibility Wind Dir Wind Speed Gust Speed Precip Events Conditions
12:15 AM 45.5 °F 37.6 °F 40.5 °F 83% 29.57 in 10.0 mi South 20.7 mph 29.9 mph 0.01 in Rain Light Rain
12:35 AM 45.5 °F 37.6 °F 41.0 °F 84% 29.57 in 7.0 mi SSW 20.7 mph 27.6 mph 0.02 in Rain Light Rain
12:55 AM 45.7 °F 38.0 °F 41.2 °F 84% 29.56 in 5.0 mi SSW 19.6 mph 32.2 mph 0.04 in Rain Light Rain
1:15 AM 38.5 °F 27.1 °F 33.3 °F 81% 29.63 in 7.0 mi West 26.5 mph 36.8 mph 0.04 in Rain Light Rain
1:35 AM 35.1 °F 24.8 °F 31.1 °F 85% 29.65 in 7.0 mi West 17.3 mph 31.1 mph 0.04 in Rain Light Rain
1:55 AM 33.8 °F 23.5 °F 30.0 °F 86% 29.66 in 4.0 mi West 16.1 mph 27.6 mph 0.04 in Snow Light Snow
2:15 AM 33.8 °F 21.6 °F 30.6 °F 88% 29.68 in 10.0 mi West 23.0 mph 27.6 mph N/A Snow Light Snow
2:35 AM 33.8 °F 21.6 °F 30.6 °F 88% 29.68 in 10.0 mi West 23.0 mph 39.1 mph N/A   Overcast
2:55 AM 32.9 °F 19.6 °F 29.5 °F 87% 29.69 in 10.0 mi West 26.5 mph 32.2 mph N/A   Overcast
3:15 AM 32.0 °F 20.5 °F 28.2 °F 86% 29.69 in 10.0 mi West 18.4 mph 32.2 mph N/A   Overcast
3:35 AM 31.6 °F 19.0 °F 27.3 °F 84% 29.70 in 10.0 mi West 21.9 mph 29.9 mph N/A   Overcast
3:55 AM 30.2 °F 15.7 °F 23.9 °F 77% 29.72 in 10.0 mi West 27.6 mph 40.3 mph N/A   Overcast
4:15 AM 29.3 °F 14.5 °F 22.8 °F 77% 29.73 in 10.0 mi West 27.6 mph 39.1 mph N/A   Overcast
4:35 AM 29.1 °F 14.8 °F 22.6 °F 77% 29.74 in 10.0 mi West 25.3 mph 36.8 mph N/A   Overcast
4:55 AM 28.9 °F 14.3 °F 22.5 °F 77% 29.74 in 10.0 mi WSW 26.5 mph 32.2 mph N/A   Overcast
5:15 AM 27.7 °F 13.1 °F 20.1 °F 73% 29.76 in 10.0 mi West 24.2 mph 35.7 mph N/A   Overcast
5:35 AM 27.3 °F 11.8 °F 19.4 °F 72% 29.77 in 10.0 mi West 27.6 mph 35.7 mph N/A   Overcast
5:55 AM 27.5 °F 13.9 °F 20.1 °F 74% 29.77 in 10.0 mi West 20.7 mph 32.2 mph N/A   Overcast
6:15 AM 27.5 °F 15.0 °F 21.0 °F 77% 29.78 in 10.0 mi West 17.3 mph 23.0 mph N/A   Overcast
6:35 AM 27.5 °F 12.9 °F 17.8 °F 67% 29.78 in 10.0 mi West 24.2 mph 38.0 mph N/A   Overcast
6:55 AM 27.3 °F 12.4 °F 18.5 °F 69% 29.79 in 10.0 mi West 25.3 mph 32.2 mph N/A   Overcast
7:15 AM 26.1 °F 11.3 °F 17.6 °F 70% 29.80 in 10.0 mi West 23.0 mph 38.0 mph N/A   Overcast
7:35 AM 25.5 °F 10.3 °F 16.3 °F 68% 29.81 in 10.0 mi West 24.2 mph 34.5 mph N/A   Overcast
7:55 AM 25.0 °F 10.9 °F 15.3 °F 67% 29.83 in 10.0 mi West 19.6 mph 34.5 mph N/A   Overcast
8:15 AM 24.8 °F 8.7 °F 16.0 °F 69% 29.83 in 10.0 mi West 26.5 mph 33.4 mph N/A Snow Light Snow
8:35 AM 24.8 °F 9.0 °F 15.8 °F 69% 29.84 in 10.0 mi West 25.3 mph 33.4 mph N/A Snow Light Snow
8:55 AM 24.8 °F 10.7 °F 17.1 °F 72% 29.84 in 4.0 mi West 19.6 mph 26.5 mph N/A Snow Light Snow
9:15 AM 25.5 °F 10.3 °F 17.8 °F 72% 29.85 in 10.0 mi West 24.2 mph 31.1 mph N/A Snow Light Snow
9:35 AM 25.0 °F 10.2 °F 18.7 °F 77% 29.86 in 2.0 mi WSW 21.9 mph 31.1 mph N/A Snow Light Snow
9:55 AM 23.5 °F 8.0 °F 16.7 °F 75% 29.87 in 2.5 mi WSW 23.0 mph 33.4 mph N/A Snow Light Snow
10:15 AM 23.7 °F 8.5 °F 14.7 °F 69% 29.88 in 10.0 mi West 21.9 mph 35.7 mph N/A Snow Light Snow
10:35 AM 23.5 °F 6.7 °F 14.9 °F 70% 29.88 in 7.0 mi West 27.6 mph 36.8 mph N/A Snow Light Snow
10:55 AM 23.7 °F 8.5 °F 15.4 °F 71% 29.89 in 7.0 mi West 21.9 mph 33.4 mph N/A Snow Light Snow
11:15 AM 23.9 °F 8.4 °F 15.3 °F 70% 29.89 in 5.0 mi West 23.0 mph 33.4 mph N/A Snow Light Snow
11:35 AM 24.3 °F 9.3 °F 15.8 °F 70% 29.89 in 5.0 mi West 21.9 mph 32.2 mph N/A Snow Light Snow
11:55 AM 23.9 °F 9.9 °F 16.3 °F 73% 29.90 in 2.5 mi West 18.4 mph 32.2 mph N/A Snow Light Snow
12:15 PM 23.9 °F 11.7 °F 16.3 °F 73% 29.90 in 2.5 mi West 13.8 mph 29.9 mph N/A Snow Light Snow
12:35 PM 23.5 °F 6.7 °F 14.0 °F 67% 29.91 in 10.0 mi West 27.6 mph 39.1 mph N/A Snow Light Snow
12:55 PM 22.8 °F 8.1 °F 15.6 °F 74% 29.92 in 2.0 mi West 19.6 mph 32.2 mph N/A Snow Light Snow
1:35 PM 23.5 °F 8.7 °F 14.5 °F 69% 29.92 in 10.0 mi West 20.7 mph 31.1 mph N/A Snow Light Snow
1:55 PM 23.5 °F 8.7 °F 15.6 °F 72% 29.92 in 4.0 mi West 20.7 mph 29.9 mph N/A Snow Light Snow
2:15 PM 23.4 °F 6.8 °F 15.3 °F 71% 29.93 in 5.0 mi West 26.5 mph 35.7 mph N/A Snow Light Snow
2:35 PM 23.4 °F 8.4 °F 14.5 °F 69% 29.94 in 4.0 mi West 20.7 mph 31.1 mph N/A Snow Light Snow
2:55 PM 22.8 °F 5.2 °F 13.1 °F 66% 29.95 in 10.0 mi West 29.9 mph 35.7 mph N/A Snow Light Snow
3:15 PM 23.0 °F 8.7 °F 13.1 °F 66% 29.96 in 10.0 mi West 18.4 mph 31.1 mph N/A Snow Light Snow
3:35 PM 23.2 °F 7.8 °F 13.8 °F 67% 29.96 in 10.0 mi West 21.9 mph 34.5 mph N/A Snow Light Snow
3:55 PM 23.5 °F 7.3 °F 15.4 °F 71% 29.98 in 4.0 mi West 25.3 mph 31.1 mph N/A Snow Light Snow
4:15 PM 22.1 °F 7.2 °F 14.4 °F 72% 29.99 in 2.5 mi West 19.6 mph 34.5 mph N/A Snow Light Snow
4:35 PM 22.1 °F 8.9 °F 12.6 °F 67% 30.01 in 10.0 mi West 15.0 mph 35.7 mph N/A   Overcast
4:55 PM 22.1 °F 7.6 °F 13.1 °F 68% 30.01 in 10.0 mi West 18.4 mph 31.1 mph N/A Snow Light Snow
5:15 PM 22.1 °F 6.4 °F 13.8 °F 70% 30.02 in 5.0 mi West 21.9 mph 34.5 mph N/A Snow Light Snow
5:35 PM 22.5 °F 7.2 °F 13.3 °F 68% 30.03 in 10.0 mi West 20.7 mph 27.6 mph N/A   Overcast
5:55 PM 22.6 °F 8.3 °F 13.8 °F 69% 30.04 in 7.0 mi West 18.4 mph 33.4 mph N/A Snow Light Snow
6:15 PM 22.8 °F 8.1 °F 13.5 °F 67% 30.05 in 7.0 mi West 19.6 mph 35.7 mph N/A Snow Light Snow
6:35 PM 22.5 °F 8.5 °F 11.7 °F 63% 30.06 in 10.0 mi West 17.3 mph 32.2 mph N/A   Overcast
7:35 PM 22.8 °F 9.9 °F 13.8 °F 68% 30.07 in 10.0 mi West 15.0 mph 26.5 mph N/A   Overcast
7:55 PM 23.0 °F 8.3 °F 12.6 °F 64% 30.07 in 10.0 mi West 19.6 mph 33.4 mph N/A   Overcast
8:15 PM 23.0 °F 10.1 °F 12.2 °F 63% 30.08 in 10.0 mi West 15.0 mph 28.8 mph N/A   Overcast
8:55 PM 23.4 °F 8.1 °F 12.7 °F 64% 30.08 in 10.0 mi West 21.9 mph 28.8 mph N/A   Overcast
9:15 PM 23.2 °F 7.5 °F 11.5 °F 61% 30.09 in 10.0 mi West 23.0 mph 34.5 mph N/A   Overcast
9:35 PM 23.0 °F 8.7 °F 12.2 °F 63% 30.09 in 10.0 mi West 18.4 mph 23.0 mph N/A   Overcast
9:55 PM 22.8 °F 5.4 °F 11.1 °F 61% 30.10 in 10.0 mi West 28.8 mph 34.5 mph N/A   Overcast
10:15 PM 22.6 °F 6.1 °F 10.2 °F 59% 30.11 in 10.0 mi West 25.3 mph 33.4 mph N/A   Overcast
10:35 PM 22.1 °F 7.6 °F 10.0 °F 60% 30.11 in 10.0 mi West 18.4 mph 36.8 mph N/A   Overcast
10:55 PM 22.1 °F 6.8 °F 10.0 °F 60% 30.11 in 10.0 mi West 20.7 mph 34.5 mph N/A   Overcast
11:15 PM 21.9 °F 8.7 °F 9.5 °F 59% 30.12 in 10.0 mi WNW 15.0 mph 32.2 mph N/A   Overcast
11:35 PM 21.9 °F 8.7 °F 10.4 °F 61% 30.11 in 10.0 mi West 15.0 mph 28.8 mph N/A   Overcast
11:55 PM 21.7 °F 7.1 °F 10.8 °F 63% 30.12 in 10.0 mi West 18.4 mph 26.5 mph N/A Snow Light Snow